This is the latest recevied weather packets stored in our database for station/object 5B4APJ-13. If no packets are shown the sender has not sent any weather packets the latest 10 day(s).
| Time | Temp. | Humidity | Pressure | Rain* | Wind** | Luminosity | Snow |
|---|---|---|---|---|---|---|---|
| 1777939923 | 11.11° C | 70% | 1010.2 hPa | 0 mm | 0.45 m/s, 255° | 0 W/m² | - |
| 1777939623 | 11.67° C | 70% | 1010 hPa | 0 mm | 0.89 m/s, 252° | 0 W/m² | - |
| 1777939323 | 11.67° C | 70% | 1010.3 hPa | 0 mm | 0.89 m/s, 253° | 0 W/m² | - |
| 1777939023 | 11.11° C | 70% | 1010 hPa | 0 mm | 1.34 m/s, 254° | 0 W/m² | - |
| 1777938723 | 11.11° C | 71% | 1010.2 hPa | 0 mm | 1.34 m/s, 258° | 0 W/m² | - |
| 1777938423 | 11.11° C | 71% | 1010 hPa | 0 mm | 0.89 m/s, 264° | 0 W/m² | - |
| 1777938123 | 11.11° C | 71% | 1010.3 hPa | 0 mm | 1.34 m/s, 265° | 0 W/m² | - |
| 1777937823 | 11.11° C | 71% | 1010.3 hPa | 0 mm | 1.34 m/s, 271° | 0 W/m² | - |
| 1777937523 | 11.67° C | 71% | 1010.2 hPa | 0 mm | 0 m/s | 0 W/m² | - |
| 1777937223 | 11.67° C | 71% | 1010.4 hPa | 0 mm | 0.89 m/s, 244° | 0 W/m² | - |
| 1777936923 | 11.11° C | 71% | 1010.2 hPa | 0 mm | 1.79 m/s, 255° | 0 W/m² | - |
| 1777936623 | 11.67° C | 72% | 1010.5 hPa | 0 mm | 1.79 m/s, 258° | 0 W/m² | - |
| 1777936323 | 11.67° C | 70% | 1010.5 hPa | 0 mm | 1.79 m/s, 264° | 0 W/m² | - |
| 1777936023 | 11.67° C | 70% | 1010.5 hPa | 0 mm | 1.79 m/s, 273° | 0 W/m² | - |
| 1777935722 | 11.67° C | 69% | 1010.5 hPa | 0 mm | 0.45 m/s, 228° | 0 W/m² | - |
| 1777935423 | 11.67° C | 70% | 1010.4 hPa | 0 mm | 0 m/s | 0 W/m² | - |
| 1777935123 | 11.11° C | 71% | 1010.6 hPa | 0 mm | 0 m/s | 0 W/m² | - |
| 1777934823 | 11.11° C | 72% | 1010.9 hPa | 0 mm | 0 m/s | 0 W/m² | - |
| 1777934523 | 11.11° C | 73% | 1010.8 hPa | 0 mm | 0.89 m/s, 252° | 0 W/m² | - |
| 1777934223 | 11.67° C | 71% | 1010.7 hPa | 0 mm | 0.89 m/s, 252° | 0 W/m² | - |
| 1777933923 | 11.67° C | 70% | 1010.9 hPa | 0 mm | 1.34 m/s, 237° | 0 W/m² | - |
| 1777933623 | 11.67° C | 70% | 1010.9 hPa | 0 mm | 0.45 m/s, 234° | 0 W/m² | - |
| 1777933323 | 11.67° C | 70% | 1010.9 hPa | 0 mm | 0.89 m/s, 180° | 0 W/m² | - |
| 1777933023 | 11.67° C | 69% | 1010.9 hPa | 0 mm | 0.89 m/s, 141° | 0 W/m² | - |
| 1777932723 | 11.67° C | 69% | 1011 hPa | 0 mm | 0 m/s | 0 W/m² | - |
* Rain latest hour (hover to see other rain measurements)
** Current wind speed in m/s (hover to see current wind gust speed)